Time,TemperatureF,DewpointF,PressureIn,WindDirection,WindDirectionDegrees,WindSpeedMPH,WindSpeedGustMPH,Humidity,HourlyPrecipIn,Conditions,Clouds,dailyrainin,SoftwareType,DateUTC
2013-08-25 00:02:00,-999.0,-99.9,-100.00,ESE,112,6.0,-999.0,-999,-99.99,,,-99.99,,2013-08-25 04:02:00,
2013-08-25 00:14:00,71.0,62.0,-100.00,ESE,112,6.0,-999.0,74,-99.99,,,-99.99,,2013-08-25 04:14:00,
2013-08-25 00:25:00,71.0,62.0,-100.00,ESE,109,6.0,-999.0,75,-99.99,,,-99.99,,2013-08-25 04:25:00,
2013-08-25 00:43:00,71.0,63.0,-100.00,ESE,109,5.0,-999.0,75,-99.99,,,-99.99,,2013-08-25 04:43:00,
2013-08-25 00:54:00,70.0,62.0,-100.00,ESE,112,5.0,-999.0,75,-99.99,,,-99.99,,2013-08-25 04:54:00,
2013-08-25 01:12:00,70.0,62.0,-100.00,ESE,117,6.0,-999.0,75,-99.99,,,-99.99,,2013-08-25 05:12:00,
2013-08-25 01:23:00,70.0,62.0,-100.00,SE,131,6.0,-999.0,75,-99.99,,,-99.99,,2013-08-25 05:23:00,
2013-08-25 01:34:00,70.0,62.0,-100.00,SE,131,6.0,-999.0,75,-99.99,,,-99.99,,2013-08-25 05:34:00,
2013-08-25 01:42:00,70.0,62.0,-100.00,SE,131,6.0,-999.0,75,-99.99,,,-99.99,,2013-08-25 05:42:00,
2013-08-25 01:52:00,70.0,61.0,-100.00,ESE,114,5.0,-999.0,73,-99.99,,,-99.99,,2013-08-25 05:52:00,
2013-08-25 02:03:00,70.0,61.0,-100.00,ESE,114,5.0,-999.0,73,-99.99,,,-99.99,,2013-08-25 06:03:00,
2013-08-25 02:12:00,70.0,61.0,-100.00,ESE,114,5.0,-999.0,73,-99.99,,,-99.99,,2013-08-25 06:12:00,
2013-08-25 02:22:00,69.0,60.0,-100.00,ESE,111,5.0,-999.0,71,-99.99,,,-99.99,,2013-08-25 06:22:00,
2013-08-25 02:32:00,69.0,60.0,-100.00,ESE,111,5.0,-999.0,71,-99.99,,,-99.99,,2013-08-25 06:32:00,
2013-08-25 02:43:00,69.0,60.0,-100.00,ESE,111,5.0,-999.0,71,-99.99,,,-99.99,,2013-08-25 06:43:00,
2013-08-25 02:52:00,69.0,60.0,-100.00,East,84,4.0,-999.0,74,-99.99,,,-99.99,,2013-08-25 06:52:00,
2013-08-25 03:01:00,69.0,60.0,-100.00,East,84,4.0,-999.0,74,-99.99,,,-99.99,,2013-08-25 07:01:00,
2013-08-25 03:12:00,69.0,60.0,-100.00,East,84,4.0,-999.0,74,-99.99,,,-99.99,,2013-08-25 07:12:00,
2013-08-25 03:22:00,67.0,61.0,-100.00,ENE,77,4.0,-999.0,78,-99.99,,,-99.99,,2013-08-25 07:22:00,
2013-08-25 03:32:00,67.0,61.0,-100.00,ENE,77,4.0,-999.0,78,-99.99,,,-99.99,,2013-08-25 07:32:00,
2013-08-25 03:42:00,67.0,61.0,-100.00,ENE,77,4.0,-999.0,78,-99.99,,,-99.99,,2013-08-25 07:42:00,
2013-08-25 03:52:00,66.0,60.0,-100.00,ENE,62,3.0,-999.0,81,-99.99,,,-99.99,,2013-08-25 07:52:00,
2013-08-25 04:02:00,66.0,60.0,-100.00,ENE,62,3.0,-999.0,81,-99.99,,,-99.99,,2013-08-25 08:02:00,
2013-08-25 04:12:00,66.0,60.0,-100.00,ENE,62,3.0,-999.0,81,-99.99,,,-99.99,,2013-08-25 08:12:00,
2013-08-25 04:21:00,66.0,60.0,-100.00,North,353,2.0,-999.0,80,-99.99,,,-99.99,,2013-08-25 08:21:00,
2013-08-25 04:32:00,66.0,60.0,-100.00,North,353,2.0,-999.0,80,-99.99,,,-99.99,,2013-08-25 08:32:00,
2013-08-25 04:42:00,66.0,60.0,-100.00,North,353,2.0,-999.0,80,-99.99,,,-99.99,,2013-08-25 08:42:00,
2013-08-25 04:52:00,66.0,60.0,-100.00,ENE,66,1.0,-999.0,80,-99.99,,,-99.99,,2013-08-25 08:52:00,
2013-08-25 05:02:00,66.0,60.0,-100.00,ENE,66,1.0,-999.0,80,-99.99,,,-99.99,,2013-08-25 09:02:00,
2013-08-25 05:11:00,66.0,60.0,-100.00,ENE,66,1.0,-999.0,80,-99.99,,,-99.99,,2013-08-25 09:11:00,
2013-08-25 05:22:00,66.0,60.0,-100.00,NE,55,2.0,-999.0,80,-99.99,,,-99.99,,2013-08-25 09:22:00,
2013-08-25 05:34:00,66.0,60.0,-100.00,NE,55,2.0,-999.0,80,-99.99,,,-99.99,,2013-08-25 09:34:00,
2013-08-25 05:44:00,66.0,60.0,-100.00,NE,55,2.0,-999.0,80,-99.99,,,-99.99,,2013-08-25 09:44:00,
2013-08-25 05:55:00,66.0,60.0,-100.00,ENE,66,2.0,-999.0,81,-99.99,,,-99.99,,2013-08-25 09:55:00,
2013-08-25 06:03:00,66.0,60.0,-100.00,ENE,66,2.0,-999.0,81,-99.99,,,-99.99,,2013-08-25 10:03:00,
2013-08-25 06:12:00,66.0,60.0,-100.00,ENE,66,2.0,-999.0,81,-99.99,,,-99.99,,2013-08-25 10:12:00,
2013-08-25 06:23:00,65.0,59.0,-100.00,NW,310,1.0,-999.0,80,-99.99,,,-99.99,,2013-08-25 10:23:00,
2013-08-25 06:33:00,65.0,59.0,-100.00,NW,310,1.0,-999.0,80,-99.99,,,-99.99,,2013-08-25 10:33:00,
2013-08-25 06:42:00,65.0,59.0,-100.00,NW,310,1.0,-999.0,80,-99.99,,,-99.99,,2013-08-25 10:42:00,
2013-08-25 06:53:00,64.0,59.0,-100.00,NNW,346,3.0,-999.0,82,-99.99,,,-99.99,,2013-08-25 10:53:00,
2013-08-25 07:02:00,64.0,59.0,-100.00,NNW,346,3.0,-999.0,82,-99.99,,,-99.99,,2013-08-25 11:02:00,
2013-08-25 07:12:00,64.0,59.0,-100.00,NNW,346,3.0,-999.0,82,-99.99,,,-99.99,,2013-08-25 11:12:00,
2013-08-25 07:22:00,65.0,59.0,-100.00,NE,41,2.0,-999.0,80,-99.99,,,-99.99,,2013-08-25 11:22:00,
2013-08-25 07:42:00,65.0,59.0,-100.00,NE,56,2.0,-999.0,80,-99.99,,,-99.99,,2013-08-25 11:42:00,
2013-08-25 07:52:00,66.0,59.0,-100.00,East,90,2.0,-999.0,78,-99.99,,,-99.99,,2013-08-25 11:52:00,
2013-08-25 08:12:00,66.0,59.0,-100.00,SE,125,2.0,-999.0,77,-99.99,,,-99.99,,2013-08-25 12:12:00,
2013-08-25 08:22:00,67.0,60.0,-100.00,ENE,75,1.0,-999.0,77,-99.99,,,-99.99,,2013-08-25 12:22:00,
2013-08-25 08:43:00,68.0,60.0,-100.00,ESE,117,1.0,-999.0,75,-99.99,,,-99.99,,2013-08-25 12:43:00,
2013-08-25 08:52:00,69.0,60.0,-100.00,East,97,2.0,-999.0,74,-99.99,,,-99.99,,2013-08-25 12:52:00,
2013-08-25 09:12:00,69.0,61.0,-100.00,ESE,109,3.0,-999.0,73,-99.99,,,-99.99,,2013-08-25 13:12:00,
2013-08-25 09:22:00,70.0,61.0,-100.00,ESE,105,4.0,-999.0,73,-99.99,,,-99.99,,2013-08-25 13:22:00,
2013-08-25 09:42:00,70.0,61.0,-100.00,ESE,106,4.0,-999.0,72,-99.99,,,-99.99,,2013-08-25 13:42:00,
2013-08-25 09:52:00,70.0,60.0,-100.00,ESE,116,5.0,-999.0,70,-99.99,,,-99.99,,2013-08-25 13:52:00,
2013-08-25 10:11:00,71.0,60.0,-100.00,ESE,114,4.0,-999.0,66,-99.99,,,-99.99,,2013-08-25 14:11:00,
2013-08-25 10:27:00,72.0,59.0,-100.00,ESE,112,4.0,-999.0,61,-99.99,,,-99.99,,2013-08-25 14:27:00,
2013-08-25 10:42:00,72.0,56.0,-100.00,East,96,4.0,-999.0,56,-99.99,,,-99.99,,2013-08-25 14:42:00,
2013-08-25 10:52:00,73.0,57.0,-100.00,ESE,116,5.0,-999.0,55,-99.99,,,-99.99,,2013-08-25 14:52:00,
2013-08-25 11:11:00,74.0,56.0,-100.00,SSE,155,4.0,-999.0,54,-99.99,,,-99.99,,2013-08-25 15:11:00,
2013-08-25 11:23:00,74.0,56.0,-100.00,SSE,154,5.0,-999.0,53,-99.99,,,-99.99,,2013-08-25 15:23:00,
2013-08-25 11:44:00,74.0,55.0,-100.00,SE,139,5.0,-999.0,51,-99.99,,,-99.99,,2013-08-25 15:44:00,
2013-08-25 11:55:00,74.0,55.0,-100.00,East,96,4.0,-999.0,51,-99.99,,,-99.99,,2013-08-25 15:55:00,
2013-08-25 12:14:00,75.0,54.0,-100.00,SE,132,4.0,-999.0,47,-99.99,,,-99.99,,2013-08-25 16:14:00,
2013-08-25 12:24:00,75.0,54.0,-100.00,SSW,197,6.0,-999.0,47,-99.99,,,-99.99,,2013-08-25 16:24:00,
2013-08-25 12:44:00,76.0,53.0,-100.00,SE,135,6.0,-999.0,44,-99.99,,,-99.99,,2013-08-25 16:44:00,
2013-08-25 12:54:00,76.0,52.0,-100.00,East,98,6.0,-999.0,42,-99.99,,,-99.99,,2013-08-25 16:54:00,
2013-08-25 13:12:00,77.0,51.0,-100.00,ESE,105,4.0,-999.0,41,-99.99,,,-99.99,,2013-08-25 17:12:00,
2013-08-25 13:23:00,77.0,52.0,-100.00,South,176,4.0,-999.0,41,-99.99,,,-99.99,,2013-08-25 17:23:00,
2013-08-25 13:43:00,76.0,52.0,-100.00,SSW,213,6.0,-999.0,42,-99.99,,,-99.99,,2013-08-25 17:43:00,
2013-08-25 13:53:00,77.0,51.0,-100.00,SSW,211,6.0,-999.0,39,-99.99,,,-99.99,,2013-08-25 17:53:00,
2013-08-25 14:12:00,77.0,50.0,-100.00,SSW,210,8.0,-999.0,38,-99.99,,,-99.99,,2013-08-25 18:12:00,
2013-08-25 14:22:00,78.0,50.0,-100.00,South,181,7.0,-999.0,37,-99.99,,,-99.99,,2013-08-25 18:22:00,
2013-08-25 14:43:00,78.0,50.0,-100.00,SW,218,5.0,-999.0,37,-99.99,,,-99.99,,2013-08-25 18:43:00,
2013-08-25 14:52:00,78.0,50.0,-100.00,SW,226,5.0,-999.0,37,-99.99,,,-99.99,,2013-08-25 18:52:00,
2013-08-25 15:12:00,78.0,50.0,-100.00,WSW,237,7.0,-999.0,37,-99.99,,,-99.99,,2013-08-25 19:12:00,
2013-08-25 15:22:00,79.0,50.0,-100.00,SW,231,6.0,-999.0,36,-99.99,,,-99.99,,2013-08-25 19:22:00,
2013-08-25 15:42:00,79.0,50.0,-100.00,SW,233,6.0,-999.0,35,-99.99,,,-99.99,,2013-08-25 19:42:00,
2013-08-25 15:53:00,80.0,50.0,-100.00,SSW,193,4.0,-999.0,35,-99.99,,,-99.99,,2013-08-25 19:53:00,
2013-08-25 16:12:00,79.0,50.0,-100.00,SSW,206,8.0,-999.0,35,-99.99,,,-99.99,,2013-08-25 20:12:00,
2013-08-25 16:23:00,79.0,49.0,-100.00,SSW,209,6.0,-999.0,35,-99.99,,,-99.99,,2013-08-25 20:23:00,
2013-08-25 16:43:00,79.0,49.0,-100.00,SSE,165,6.0,-999.0,35,-99.99,,,-99.99,,2013-08-25 20:43:00,
2013-08-25 16:53:00,80.0,49.0,-100.00,SSW,211,6.0,-999.0,33,-99.99,,,-99.99,,2013-08-25 20:53:00,
2013-08-25 17:12:00,80.0,49.0,-100.00,SSW,209,6.0,-999.0,33,-99.99,,,-99.99,,2013-08-25 21:12:00,
2013-08-25 17:22:00,79.0,49.0,-100.00,SSW,207,7.0,-999.0,35,-99.99,,,-99.99,,2013-08-25 21:22:00,
2013-08-25 17:43:00,80.0,50.0,-100.00,SSW,207,6.0,-999.0,34,-99.99,,,-99.99,,2013-08-25 21:43:00,
2013-08-25 17:55:00,80.0,50.0,-100.00,SSW,210,4.0,-999.0,34,-99.99,,,-99.99,,2013-08-25 21:55:00,
2013-08-25 18:14:00,80.0,50.0,-100.00,South,181,6.0,-999.0,34,-99.99,,,-99.99,,2013-08-25 22:14:00,
2013-08-25 18:24:00,79.0,50.0,-100.00,SSE,157,8.0,-999.0,36,-99.99,,,-99.99,,2013-08-25 22:24:00,
2013-08-25 18:43:00,79.0,52.0,-100.00,South,188,8.0,-999.0,38,-99.99,,,-99.99,,2013-08-25 22:43:00,
2013-08-25 18:53:00,78.0,53.0,-100.00,South,173,11.0,-999.0,42,-99.99,,,-99.99,,2013-08-25 22:53:00,
2013-08-25 19:12:00,77.0,55.0,-100.00,South,177,12.0,-999.0,46,-99.99,,,-99.99,,2013-08-25 23:12:00,
2013-08-25 19:23:00,77.0,55.0,-100.00,South,178,11.0,-999.0,46,-99.99,,,-99.99,,2013-08-25 23:23:00,
2013-08-25 19:43:00,76.0,54.0,-100.00,South,173,12.0,-999.0,45,-99.99,,,-99.99,,2013-08-25 23:43:00,
2013-08-25 19:53:00,76.0,52.0,-100.00,South,178,9.0,-999.0,43,-99.99,,,-99.99,,2013-08-25 23:53:00,
2013-08-25 20:11:00,75.0,53.0,-100.00,SSW,192,10.0,-999.0,46,-99.99,,,-99.99,,2013-08-26 00:11:00,
2013-08-25 20:22:00,75.0,55.0,-100.00,South,175,8.0,-999.0,49,-99.99,,,-99.99,,2013-08-26 00:22:00,
2013-08-25 20:42:00,74.0,55.0,-100.00,South,185,10.0,-999.0,50,-99.99,,,-99.99,,2013-08-26 00:42:00,
2013-08-25 20:52:00,73.0,54.0,-100.00,South,184,11.0,-999.0,50,-99.99,,,-99.99,,2013-08-26 00:52:00,
2013-08-25 21:11:00,73.0,54.0,-100.00,South,191,11.0,-999.0,51,-99.99,,,-99.99,,2013-08-26 01:11:00,
2013-08-25 21:22:00,73.0,54.0,-100.00,South,179,8.0,-999.0,51,-99.99,,,-99.99,,2013-08-26 01:22:00,
2013-08-25 21:42:00,72.0,53.0,-100.00,South,186,10.0,-999.0,49,-99.99,,,-99.99,,2013-08-26 01:42:00,
2013-08-25 21:52:00,72.0,52.0,-100.00,South,185,9.0,-999.0,49,-99.99,,,-99.99,,2013-08-26 01:52:00,
2013-08-25 22:11:00,72.0,52.0,-100.00,South,191,9.0,-999.0,49,-99.99,,,-99.99,,2013-08-26 02:11:00,
2013-08-25 22:22:00,72.0,52.0,-100.00,South,190,8.0,-999.0,49,-99.99,,,-99.99,,2013-08-26 02:22:00,
2013-08-25 22:42:00,72.0,52.0,-100.00,South,186,7.0,-999.0,49,-99.99,,,-99.99,,2013-08-26 02:42:00,
2013-08-25 22:52:00,72.0,52.0,-100.00,South,191,6.0,-999.0,50,-99.99,,,-99.99,,2013-08-26 02:52:00,
2013-08-25 23:11:00,72.0,52.0,-100.00,SSW,193,6.0,-999.0,50,-99.99,,,-99.99,,2013-08-26 03:11:00,
2013-08-25 23:22:00,71.0,52.0,-100.00,SSW,202,8.0,-999.0,50,-99.99,,,-99.99,,2013-08-26 03:22:00,
2013-08-25 23:44:00,71.0,53.0,-100.00,SSW,196,8.0,-999.0,52,-99.99,,,-99.99,,2013-08-26 03:44:00,
2013-08-25 23:56:00,70.0,53.0,-100.00,SSW,196,7.0,-999.0,54,-99.99,,,-99.99,,2013-08-26 03:56:00,